MARSHFIELD, MA current weather conditions

sailwx.info

Wind from 210 at 10 knots gusting 14

Air temperature 2.0° C
Visibility: greater than 8.7 NM
Dewpoint -2.0° C

Last reported at 2015-Mar-30 11:35 UTC.
Time now 2015-Mar-30 13:02 UTC

Location: N 42°06' W 070°40'.
View on Google Maps.

See reports from other nearby stations

  
Tides and Currents Weather Stations Pressure Air Temp Water Temp Dewpoint Dewpoint Depression Visibility Wind Speed Wind Dir Waves Ship Positions
date/time (UTC)wind fromknots sea level pressurealtimeterstation pressurevisibilityair tempwater tempwave heightnotes
2015-Mar-30 11:35 210 10 gusting 14 8.7 2.0
2015-Mar-30 11:15 200 8 8.7 1.0
2015-Mar-30 10:55 210 8 8.7 1.0
2015-Mar-30 10:35 200 6 8.7 1.0
2015-Mar-30 10:15 210 7 8.7 1.0
2015-Mar-30 09:55 200 7 8.7-0.0
2015-Mar-30 09:35 200 7 8.7-0.0
2015-Mar-30 09:15 210 7 8.7-0.0
2015-Mar-30 08:55 210 6 8.7-0.0
2015-Mar-30 08:35 210 7 8.7-0.0
2015-Mar-30 08:15 220 7 8.7-0.0
2015-Mar-30 07:55 220 6 8.7-0.0
2015-Mar-30 07:35 210 5 8.7-0.0
2015-Mar-30 07:15 220 6 8.7-0.0
2015-Mar-30 06:55 220 6 8.7-0.0
2015-Mar-30 06:35 230 5 8.7-0.0
2015-Mar-30 06:15 230 6 8.7-0.0
2015-Mar-30 05:55 210 7 8.7-0.0
2015-Mar-30 05:35 220 5 8.7-0.0
2015-Mar-30 05:15 220 5 8.7-0.0
2015-Mar-30 04:55 230 3 8.7-0.0
2015-Mar-30 04:35 220 5 8.7-0.0
2015-Mar-30 04:15 220 6 8.7-0.0
2015-Mar-30 03:55 210 5 8.7-0.0
2015-Mar-30 03:35 230 3 8.7-0.0
2015-Mar-30 03:15 8.7-0.0
2015-Mar-30 02:55 220 5 8.7-0.0
2015-Mar-30 02:35 210 4 8.7-0.0
2015-Mar-30 02:15 210 5 8.7-0.0
2015-Mar-30 01:55 220 4 8.7-0.0
2015-Mar-30 01:35 230 4 8.7-0.0
2015-Mar-30 01:15 210 4 8.7-0.0
2015-Mar-30 00:55 190 5 8.7-0.0
2015-Mar-30 00:35 190 3 8.7 1.0
2015-Mar-30 00:15 190 5 8.7 1.0
2015-Mar-29 23:55 190 5 8.7 1.0
2015-Mar-29 23:35 170 4 8.7 1.0
2015-Mar-29 23:15 180 5 8.7 1.0
2015-Mar-29 22:55 150 4 8.7 1.0
2015-Mar-29 22:35 140 4 8.7 1.0
2015-Mar-29 22:15 150 5 8.7 2.0
2015-Mar-29 21:55 170 7 8.7 2.0
2015-Mar-29 21:35 130 6 8.7 2.0
2015-Mar-29 21:15 140 4 8.7 2.0
2015-Mar-29 20:55 130 4 8.7 2.0
2015-Mar-29 20:35 140 5 8.7 2.0
2015-Mar-29 20:15 130 7 8.7 2.0
2015-Mar-29 19:55 120 8 8.7 2.0
2015-Mar-29 19:35 120 6 8.7 2.0
2015-Mar-29 19:15 090 5 8.7 2.0
2015-Mar-29 18:55 070 8 8.7 2.0
2015-Mar-29 18:35 070 7 8.7 2.0
2015-Mar-29 18:15 060 7 8.7 2.0
2015-Mar-29 17:55 060 7 8.7 2.0
2015-Mar-29 17:35 050 6 8.7 1.0
2015-Mar-29 17:15 030 4 8.7 1.0
2015-Mar-29 16:55 030 5 8.7 2.0
2015-Mar-29 16:35 010 5 8.7 1.0
2015-Mar-29 16:15 020 5 8.7 1.0
2015-Mar-29 15:55 020 5 8.7 1.0
2015-Mar-29 15:35 340 8 8.7 1.0
2015-Mar-29 15:15 360 5 8.7 1.0
2015-Mar-29 14:55 340 7 gusting 15 8.7 1.0
2015-Mar-29 14:35 360 8 8.7 1.0
2015-Mar-29 14:15 340 7 8.7-0.0
2015-Mar-29 13:55 330 8 8.7-0.0
2015-Mar-29 13:35 340 6 8.7-0.0
2015-Mar-29 13:15 340 6 gusting 14 8.7-0.0
2015-Mar-29 12:55 340 7 gusting 15 8.7-0.0
2015-Mar-29 12:35 360 7 8.7-0.0
2015-Mar-29 12:15 330 6 8.7-0.0
2015-Mar-29 11:55 340 8 8.7-1.0
2015-Mar-29 11:35 360 8 8.7-1.0
2015-Mar-29 11:15 340 3 8.7-1.0
2015-Mar-29 10:55 320 3 8.7-1.0
2015-Mar-29 10:35 320 5 8.7-2.0
2015-Mar-29 10:15 330 5 8.7-2.0
2015-Mar-29 09:55 320 6 8.7-2.0
2015-Mar-29 09:35 330 4 8.7-2.0
2015-Mar-29 09:15 310 4 8.7-2.0
2015-Mar-29 08:55 320 5 8.7-2.0
2015-Mar-29 08:35 300 4 8.7-2.0
2015-Mar-29 08:15 300 3 8.7-2.0
2015-Mar-29 07:55 310 5 8.7-2.0
2015-Mar-29 07:35 320 5 8.7-2.0
2015-Mar-29 07:15 320 7 8.7-1.0
2015-Mar-29 06:55 320 9 gusting 14 8.7-1.0
2015-Mar-29 06:35 320 6 gusting 14 8.7-1.0
2015-Mar-29 06:15 310 4 8.7-0.0
2015-Mar-29 05:55 310 6 8.7-0.0
2015-Mar-29 05:35 310 5 8.7-0.0
2015-Mar-29 05:15 310 7 8.7-0.0
2015-Mar-29 04:55 320 7 7.0-0.0
2015-Mar-29 04:35 330 5 8.7-0.0
2015-Mar-29 04:15 310 6 8.7-0.0
2015-Mar-29 03:55 300 3 8.7-0.0
2015-Mar-29 03:35 8.7-0.0
2015-Mar-29 03:15 280 3 8.7-0.0
2015-Mar-29 02:55 280 3 2.6 1.0 Mist.
2015-Mar-29 02:35 2.2 1.0 Light snow.
2015-Mar-29 02:15 310 4 2.6 1.0 Precipitation.
2015-Mar-29 01:55 4.3 1.0 Precipitation.
2015-Mar-29 01:35 8.7 1.0
2015-Mar-29 01:15 8.7 1.0
2015-Mar-29 00:55 010 4 8.7 1.0
2015-Mar-29 00:35 360 3 8.7 1.0
2015-Mar-29 00:15 360 3 8.7 1.0
2015-Mar-28 23:55 360 4 8.7 1.0
2015-Mar-28 23:35 360 6 8.7 1.0
2015-Mar-28 23:15 020 5 6.1 1.0
2015-Mar-28 22:55 020 7 2.6 1.0 Light snow.
2015-Mar-28 22:35 360 7 gusting 17 1.3 1.0 Light snow.
2015-Mar-28 22:15 360 6 2.6 1.0 Light snow.
2015-Mar-28 21:55 360 9 gusting 19 1.1 1.0 Light snow.
2015-Mar-28 21:35 010 6 gusting 16 1.3 1.0 Light snow.
2015-Mar-28 21:15 010 9 gusting 17 1.1 1.0 Light snow.
2015-Mar-28 20:55 360 7 gusting 15 0.9 1.0 Light snow.
2015-Mar-28 20:35 360 8 gusting 17 1.1 1.0 Light snow.
2015-Mar-28 20:15 010 9 gusting 19 1.5 1.0 Light snow.
2015-Mar-28 19:55 010 9 gusting 22 1.1 1.0 Light snow.
2015-Mar-28 19:35 360 9 gusting 19 1.3 1.0 Light snow.
2015-Mar-28 19:15 360 12 gusting 17 1.1 1.0 Light snow.
2015-Mar-28 18:55 020 9 gusting 20 0.9 1.0 Precipitation.
2015-Mar-28 18:35 010 11 gusting 22 0.9 1.0 Light snow.
2015-Mar-28 18:15 010 13 gusting 24 0.9 1.0 Light snow.
2015-Mar-28 17:55 010 8 gusting 20 0.7 1.0 Light snow.
2015-Mar-28 17:35 360 11 gusting 24 0.7 1.0 Light snow.
2015-Mar-28 17:15 020 11 gusting 17 0.4 1.0 Precipitation.
2015-Mar-28 16:55 020 8 gusting 19 0.4 1.0 Light snow.
2015-Mar-28 16:35 020 9 gusting 20 0.7 1.0 Light snow.
2015-Mar-28 16:15 020 9 gusting 27 2.2 1.0 Light snow.
2015-Mar-28 15:55 020 11 gusting 19 1.5 1.0 Light snow.
2015-Mar-28 15:35 020 8 gusting 22 1.7 2.0 Light snow.
2015-Mar-28 15:15 020 9 gusting 23 1.5 2.0 Light snow.
2015-Mar-28 14:55 010 10 gusting 20 3.5 2.0 Precipitation.
2015-Mar-28 14:35 010 8 gusting 17 4.3 2.0 Precipitation.
2015-Mar-28 14:15 360 10 gusting 16 6.1 2.0
2015-Mar-28 13:55 010 10 gusting 16 5.2 2.0 Mist.
2015-Mar-28 13:35 010 8 gusting 18 4.3 2.0 Mist.
2015-Mar-28 13:15 020 8 gusting 20 3.5 2.0 Light rain.